Weather History for Fort Stockton, TX

Change the Weather History Date:

Wednesday, June 19, 2013

  Actual Average Record
Temperature  
Mean Temperature 85 °F -  
Max Temperature 99 °F 92 °F 107 °F (2011)
Min Temperature 72 °F 67 °F 66 °F (2003)
Cooling Degree Days 20    
Growing Degree Days 35 (Base 50)    
Moisture  
Dew Point 62 °F    
Average Humidity 50    
Maximum Humidity 81    
Minimum Humidity 23    
Precipitation  
Precipitation 0.00 in - - ()
Sea Level Pressure  
Sea Level Pressure 29.80 in    
Wind  
Wind Speed 14 mph (SE)    
Max Wind Speed 24 mph    
Max Gust Speed 33 mph    
Visibility 10 miles    
Events      
Averages and records for this station are not official NWS values.
T = Trace of Precipitation, MM = Missing Value Source: NWS Daily Summary

Daily Weather History Graph

Daily Weather History Graph

Search for Another Location

Airport:

Trip Planner

Search our weather history database for the weather conditions in past years. The results will help you decide how hot, cold, wet, or windy it might be!

Date:

Astronomy

Jun. 19, 2013 Rise Set
Actual Time 6:48 AM CDT 8:57 PM CDT
Civil Twilight 6:20 AM CDT 9:25 PM CDT
Nautical Twilight 5:46 AM CDT 9:59 PM CDT
Astronomical Twilight 5:10 AM CDT 10:35 PM CDT
Moon 5:03 PM CDT (6/19) 3:22 AM CDT (6/19)
Length of Visible Light 15h 04m
Length of Day
14h 09m
Waxing Gibbous, 80% of the Moon is Illuminated
Jun 19
Waxing Gibbous
Jun 23
Full
Jun 29
Last Quarter
Jul 8
New
Jul 15
First Quarter

Hourly Weather History & Observations

Time (CDT) Temp. Heat Index Dew Point Humidity Pressure Visibility Wind Dir Wind Speed Gust Speed Precip Events Conditions
12:53 AM 79.0 °F - 62.1 °F 56% 29.83 in 10.0 mi SSE 12.7 mph - N/A   Clear
1:53 AM 75.9 °F - 64.0 °F 67% 29.81 in 10.0 mi SSE 11.5 mph - N/A   Clear
2:53 AM 75.0 °F - 64.9 °F 71% 29.79 in 10.0 mi SSE 11.5 mph - N/A   Clear
3:53 AM 73.9 °F - 66.9 °F 79% 29.78 in 10.0 mi SSE 13.8 mph 19.6 mph N/A   Clear
4:53 AM 73.0 °F - 66.9 °F 81% 29.78 in 8.0 mi SSE 12.7 mph - N/A   Clear
5:53 AM 73.0 °F - 66.9 °F 81% 29.78 in 10.0 mi SSE 15.0 mph 24.2 mph N/A   Clear
6:53 AM 72.0 °F - 66.0 °F 81% 29.80 in 10.0 mi SSE 15.0 mph - N/A   Clear
7:53 AM 73.0 °F - 66.0 °F 79% 29.81 in 9.0 mi SSE 13.8 mph - N/A   Clear
8:53 AM 77.0 °F - 66.0 °F 69% 29.81 in 10.0 mi South 12.7 mph - N/A   Clear
9:53 AM 82.9 °F 84.6 °F 64.9 °F 54% 29.81 in 10.0 mi SSE 10.4 mph - N/A   Clear
10:53 AM 90.0 °F 90.6 °F 63.0 °F 40% 29.79 in 10.0 mi SSE 11.5 mph - N/A   Clear
11:53 AM 93.0 °F 93.8 °F 62.1 °F 36% 29.78 in 10.0 mi SE 10.4 mph - N/A   Clear
12:53 PM 98.1 °F 97.2 °F 57.9 °F 26% 29.76 in 10.0 mi Variable 6.9 mph 16.1 mph N/A   Clear
1:53 PM 97.0 °F 94.6 °F 54.0 °F 23% 29.75 in 10.0 mi SSE 13.8 mph - N/A   Scattered Clouds
2:53 PM 96.1 °F 95.6 °F 59.0 °F 29% 29.74 in 10.0 mi SE 16.1 mph 24.2 mph N/A   Partly Cloudy
3:53 PM 97.0 °F 96.1 °F 57.9 °F 27% 29.73 in 10.0 mi SE 20.7 mph 27.6 mph N/A   Clear
4:37 PM 96.8 °F 95.1 °F 55.4 °F 25% 29.88 in 10.0 mi SSE 18.4 mph 27.6 mph N/A   Partly Cloudy
4:53 PM 97.0 °F 94.6 °F 54.0 °F 23% 29.72 in 10.0 mi SSE 20.7 mph 33.4 mph N/A   Clear
5:53 PM 96.1 °F 93.8 °F 54.0 °F 24% 29.71 in 10.0 mi SSE 17.3 mph 27.6 mph N/A   Clear
6:53 PM 93.0 °F 92.3 °F 59.0 °F 32% 29.71 in 10.0 mi SSE 23.0 mph 32.2 mph N/A   Clear
7:53 PM 89.1 °F 89.0 °F 61.0 °F 39% 29.74 in 10.0 mi SSE 24.2 mph 32.2 mph N/A   Clear
8:53 PM 86.0 °F 86.1 °F 61.0 °F 43% 29.78 in 10.0 mi SE 17.3 mph 31.1 mph N/A   Clear
9:53 PM 84.0 °F 84.9 °F 63.0 °F 49% 29.82 in 10.0 mi ESE 19.6 mph 29.9 mph N/A   Clear
10:53 PM 82.0 °F 83.1 °F 63.0 °F 52% 29.92 in 10.0 mi NE 15.0 mph 18.4 mph N/A   Scattered Clouds
11:12 PM 82.4 °F 83.4 °F 62.6 °F 51% 30.07 in 10.0 mi ESE 18.4 mph 24.2 mph N/A   Scattered Clouds
11:53 PM 81.0 °F 82.2 °F 63.0 °F 54% 29.88 in 10.0 mi ESE 23.0 mph 29.9 mph N/A   Scattered Clouds